070  
ASUS42 KCHS 211327  
RWRCHS  
 
REGIONAL WEATHER ROUNDUP  
NATIONAL WEATHER SERVICE CHARLESTON SC  
900 AM EDT SAT OCT 21 2017  
 
NOTE: "FAIR" INDICATES FEW OR NO CLOUDS BELOW 12,000 FEET WITH NO  
SIGNIFICANT WEATHER AND/OR S TO VISIBILITY
.  
 
NOT ALL STATIONS ARE QUALITY CONTROLLED. USE DATA WITH CAUTION...  
ESPECIALLY DEWPOINT OBSERVATIONS.  
 
SCZ027-030-031-034>040-042>050-211400-   
..SOUTHEAST SOUTH CAROLINA
 
 
 
CITY SKY/WX TMP DP RH WIND PRES REMARKS
 
N CHARLESTON MOSUNNY 63 59 87 NE6 30.29R  
WATERFRONT PRK NOT AVBL  
JOHNS ISLAND FAIR 68 63 83 N6 30.29R  
PINOPOLIS N/A 64 61 88 NE6 30.20R  
MONCKS CORNER FAIR 63 61 94 CALM 30.31R  
SUMMERVILLE FAIR 57 55 94 N3 30.31R  
BEAUFORT MCAS SUNNY 65 63 93 MISG 30.28R  
BEAUFORT ARPT FAIR 68 61 77 NE9 30.28R  
HILTON HEAD IS SUNNY 68 63 83 N8 N/A  
WALTERBORO SUNNY 61 57 88 CALM 30.31R  
ALLENDALE N/A 61 59 94 CALM N/A  
   
..SOUTHERN MIDLANDS AND PEE DEE
 
 
 
CITY SKY/WX TMP DP RH WIND PRES REMARKS
 
GEORGETOWN FAIR 61 59 94 CALM 30.31R  
KINGSTREE FAIR 59 55 88 CALM 30.32R  
ORANGEBURG MOSUNNY 56 52 86 CALM 30.31R  
BARNWELL N/A 61 57 88 CALM 30.31R  
AIKEN N/A 55 55 100 CALM N/A  
MANNING HAZE 59 50 72 MISG 30.32R VSB<1/4  
COLUMBIA PTSUNNY 53 51 93 CALM 30.31R  
SUMTER SUNNY 57 54 89 CALM 30.29R  
FLORENCE SUNNY 59 55 87 N3 30.32R  
MYRTLE BEACH SUNNY 62 56 80 N6 30.32R  
N MYRTLE BEACH SUNNY 63 57 81 NE3 30.30R  
 

 
 
GAZ063-065-086>088-099>101-113>116-118-119-134>141-150-211400-   
..SOUTHEAST GEORGIA
 
 
 
CITY SKY/WX TMP DP RH WIND PRES REMARKS
 
SAVANNAH ARPT MOSUNNY 67 63 87 NE6 30.27R  
HUNTER AAF SUNNY 67 63 87 NE5 30.24R  
FORT STEWART CLOUDY 65 61 87 NE6 30.24R  
STATESBORO SUNNY 62 60 95 CALM 30.29R  
SYLVANIA MOSUNNY 60 60 99 CALM 30.30R FOG  
CLAXTON FAIR 63 61 94 CALM 30.28R  
   
..CSRA...CENTRAL AND FAR SOUTHEAST GEORGIA
 
 
 
CITY SKY/WX TMP DP RH WIND PRES REMARKS
 
THOMSON CLOUDY 53 49 86 CALM 30.37R  
AUGUSTA-BUSH MOSUNNY 57 53 86 N3 30.30R  
AUGUSTA-DANIEL CLOUDY 62 53 72 N3 30.31R  
SWAINSBORO FAIR 59 59 100 MISG 30.30R  
VIDALIA MOSUNNY 63 61 94 NE6 30.28R  
EASTMAN FAIR N/A N/A N/A CALM 30.30R  
HAZLEHURST FAIR 64 57 79 NE5 30.26R  
ALMA CLOUDY 66 61 84 CALM 30.23R  
WAYCROSS PTSUNNY 68 65 90 E7 30.23S  
JESUP NOT AVBL  
BAXLEY FAIR 63 63 100 NE8 30.25R  
BRUNSWICK CLOUDY 72 66 83 NE8 30.24R  
SAINT SIMONS CLOUDY 73 68 84 NE10 30.22R  
 

 
 
SCZ027-028-034-036>038-045-046-048>050-GAZ119-141-211400-   
..LAKE AND SUPPLEMENTAL COASTAL OBSERVATIONS
 
 
 
STATION/POSITION TIME TEMP WIND PRES WAVE SWELL
 
AIR SEA DIR/SP/G HT/PER HT/PER/DIR  
(UTC) (F) (DEG/KT/KT) (MB) (FT/S) (FT/S/D)  
WINYAH BAY 1245 63 350/ 6 1026.0R  
LAKE MURRAY 1220 58 CALM 1025.4  
ACE BASIN NERRS 1245 60 360/ 1 1025.0S  
FORT PULASKI 1300 70 73 40/ 9/ 11 1025.2  
SAPELO ISLAND NOT AVBL  
 

 
 
ANZ835-935-AMZ111-154-330-350-352-354-370-450-454-472-211400-   
..C-MAN AND BUOY OBSERVATIONS
 
 
 
STATION/POSITION TIME TEMP WIND PRES WAVE SWELL
 
AIR SEA DIR/SP/G HT/PER HT/PER/DIR  
(UTC) (F) (DEG/KT/KT) (MB) (FT/S) (FT/S/D)  
BUOY 41004 1310 76 81 30/ 14/ 17 1024.4  
BUOY 41008 1250 76 77 50/ 16/ 17 1023.2R 3/ 8 2/130/ 8  
FOLLY BEACH CMAN 1300 69 360/ 6/ 8 1026.0R  
CAPERS NEARSHORE 1308 69 73 30/ 10/ 16 1025.2R  
FRIPP NEARSHORE 1308 72 30/ 12/ 14 N/A  
 
 
STATION/POSITION TIME TEMP WIND PRES WAVE SWELL
 
AIR SEA DIR/SP/G HT/PER HT/PER/DIR  
(UTC) (F) (DEG/KT/KT) (MB) (FT/S) (FT/S/D)  
5E ST. MARYS GA 1300 77 N/A 4/ 6  
FRYING PAN BUOY 1310 74 50/ 10/ 12 1025.5  
BUOY 41025 1250 72 80 350/ 14/ 16 1025.7R 3/ 8 2/150/ 8  
CAPE LOOKOUT NC 1300 67 10/ 9/ 11 1026.3R  
BUOY 41002 1250 77 80 80/ 10/ 14 1024.0R 4/ 8 3/ 80/ 8  
BUOY 41010 NOT AVBL  
ST AUGUSTINE FL 1300 79 77 80/ 15/ 16 1022.5R  
 

 
 
 
CLICK HERE TO GO TO PREVIOUS BULLETINS.

The Nexlab SC Page
The Nexlab GA Page Main Text Page